Theta_e
311 311 311 311 311 311 311 312 313 315 316 318 318 319 320 321 322 324 325 326 327 328 328 328 327 327 326 325 324 322 320 319 317 316 315 313 312 312 312 311 311 310 309 309 308 307 305 302 300 298 297 298 299 300 300 300 300 299 299 298 297 296 295 294 293 292 292 292 292 292 292 292 291 291 291 291 291 291 291 291 291 291 290 290 290
313 312 311 311 311 311 311 311 312 314 315 317 318 319 320 322 324 325 326 327 327 327 328 328 327 327 326 325 324 322 319 318 316 315 313 312 312 312 311 311 310 309 309 308 307 305 303 300 298 297 297 299 300 300 300 300 299 299 298 297 297 296 295 293 292 292 292 292 292 291 291 291 291 291 291 291 291 291 291 291 291 290 290 290 290
312 313 313 312 312 312 311 311 312 313 314 316 317 319 320 322 323 325 326 326 326 326 328 328 327 326 325 324 324 321 318 317 316 314 312 312 312 311 311 310 309 309 308 307 305 303 301 299 298 297 298 299 299 300 300 300 299 298 298 297 296 295 294 293 292 292 291 291 291 291 291 291 291 291 291 291 291 291 291 291 290 290 290 290 290
311 311 312 313 313 313 312 312 312 312 314 315 317 318 320 321 323 324 325 325 326 326 327 328 327 326 325 324 323 319 317 317 316 313 312 312 311 311 310 309 309 308 307 305 303 301 300 298 297 298 299 299 300 300 300 299 298 298 297 297 296 295 294 293 292 291 291 291 291 290 290 290 290 290 291 291 291 291 290 290 290 290 289 289 290
311 311 311 311 312 313 313 313 313 313 313 314 316 318 320 321 322 323 323 324 325 326 327 327 328 326 325 325 323 319 317 317 314 312 312 312 311 310 309 309 309 307 305 303 301 300 298 297 298 299 299 299 300 300 299 298 298 298 297 296 295 294 293 292 292 291 291 290 290 290 290 290 290 290 290 290 290 290 290 290 289 289 289 289 289
311 311 310 310 310 311 312 313 314 314 315 315 317 319 320 321 322 323 323 324 324 326 327 328 328 327 325 324 322 319 318 317 313 311 312 311 310 309 309 309 308 306 303 301 300 298 297 297 298 298 299 299 300 299 299 298 298 297 297 295 294 293 292 292 291 291 290 290 290 290 290 290 290 290 290 290 290 289 289 289 289 289 288 288 288
312 311 311 310 310 310 311 312 313 314 316 318 319 321 322 322 323 323 323 324 325 326 327 329 329 326 324 323 321 318 318 317 312 311 311 310 310 309 309 308 306 304 302 300 298 297 296 298 298 298 299 299 299 299 298 298 297 297 296 294 293 292 291 291 291 290 290 290 290 290 289 289 289 289 289 289 289 289 288 289 289 288 287 287 286
312 311 311 310 310 309 310 311 312 313 315 318 320 322 323 323 324 324 323 324 326 326 327 329 328 326 324 321 319 318 318 315 312 311 311 310 309 309 308 308 305 302 301 299 297 296 297 298 298 298 298 299 298 298 298 297 297 296 295 294 292 291 291 291 290 290 290 290 290 289 289 289 289 289 288 288 288 288 288 288 288 288 287 286 286
313 312 311 310 310 309 309 310 311 312 312 314 317 320 321 322 323 324 325 325 326 327 328 328 327 325 322 320 319 318 316 312 311 311 310 309 309 309 308 306 303 301 300 298 297 296 297 298 298 298 298 298 298 298 297 297 296 295 294 293 291 291 291 290 290 290 290 289 289 289 289 289 288 288 288 288 287 288 287 287 287 287 286 286 286
313 312 311 310 309 309 309 309 310 311 311 312 313 315 318 320 322 324 326 326 326 327 328 327 326 323 320 319 318 317 313 311 311 311 309 309 309 308 307 304 301 300 299 298 296 297 298 298 298 298 298 297 297 297 297 296 295 294 293 291 291 290 290 290 290 290 289 289 289 289 289 288 288 288 287 287 287 287 286 286 286 285 285 286 286
313 313 311 310 309 309 309 309 310 311 311 311 311 313 316 319 321 323 324 323 324 326 327 325 323 320 319 319 317 314 311 311 311 310 309 309 308 307 306 303 301 299 298 297 296 297 298 299 299 298 297 297 297 296 296 295 294 293 292 291 290 290 290 290 289 289 289 289 289 288 288 288 288 287 287 286 286 286 285 285 285 285 284 284 285
313 313 312 311 310 309 309 309 310 310 311 311 312 314 317 319 320 322 323 322 324 325 324 322 320 319 319 318 314 311 311 311 310 309 309 308 307 306 304 302 300 299 297 296 296 298 298 299 298 297 297 297 296 296 295 294 293 292 291 290 290 290 289 289 289 289 289 289 288 288 288 288 287 287 286 286 286 285 285 284 284 284 284 283 284
312 313 313 312 311 310 309 308 308 309 310 312 314 316 318 320 321 323 323 323 323 322 320 319 319 320 319 316 311 311 311 310 309 309 308 308 306 303 301 300 299 298 296 296 297 298 298 298 297 297 296 296 296 295 295 294 293 291 290 289 289 289 289 289 289 289 289 288 288 288 287 287 287 286 286 285 285 284 284 284 283 283 283 283 283
311 312 313 313 312 311 310 308 308 308 310 313 316 318 319 320 321 322 321 320 320 320 321 321 321 320 317 313 310 310 310 309 309 309 308 307 305 301 299 298 297 296 296 296 297 298 297 297 296 296 296 296 295 295 294 294 292 290 289 289 289 289 289 289 289 289 288 288 288 287 287 287 286 286 285 284 284 284 283 283 283 283 283 283 283
310 311 312 313 313 312 311 309 308 308 310 313 316 318 319 320 321 321 321 321 321 322 321 321 319 317 314 311 310 310 310 309 308 308 308 305 302 300 298 297 296 296 295 296 296 296 296 296 296 296 295 295 295 294 294 294 292 290 289 289 289 289 289 288 288 288 288 288 287 287 287 286 286 285 285 284 284 283 283 283 283 282 282 283 283
311 311 311 312 313 312 311 310 309 308 310 313 315 317 318 320 321 321 321 321 321 319 319 318 316 314 311 310 310 310 309 309 308 308 306 303 300 299 298 297 296 295 295 296 295 295 295 295 295 295 295 295 295 295 296 294 292 289 289 288 288 288 288 288 288 288 288 287 287 287 287 286 285 285 284 284 283 283 283 282 282 282 282 282 282
311 311 310 311 312 312 312 311 310 309 309 311 312 314 315 316 317 318 318 318 317 316 316 315 313 311 310 310 310 309 308 308 308 307 304 302 299 298 298 297 296 295 295 295 295 295 295 295 295 295 296 296 297 298 297 294 291 289 289 288 288 288 288 288 288 287 287 287 287 287 286 286 285 284 284 283 283 282 282 282 282 282 282 282 282
311 310 310 310 311 312 312 312 311 311 310 311 311 312 312 313 313 314 315 315 315 315 315 313 311 310 310 310 309 308 308 308 307 305 302 300 299 298 297 296 295 295 295 295 294 294 295 295 295 296 297 298 299 299 297 293 290 289 289 288 288 288 288 287 287 287 287 287 287 286 286 285 285 284 283 283 282 282 282 282 281 281 281 281 281
310 310 310 310 310 311 312 312 312 312 311 312 312 312 312 313 313 313 314 314 315 315 313 311 310 310 310 309 308 308 308 307 305 303 301 299 298 297 297 296 295 295 295 294 294 294 295 295 295 296 298 299 300 299 295 292 291 289 288 288 288 288 287 287 287 287 287 287 286 286 285 285 284 283 283 282 282 282 281 281 281 281 280 280 280
309 309 309 310 310 311 311 312 312 312 312 312 312 313 313 313 313 313 314 314 314 313 311 310 310 310 309 308 308 307 307 305 303 301 299 298 297 297 296 296 295 295 295 294 294 295 294 294 296 298 300 301 300 298 295 293 291 289 288 288 287 287 287 287 287 287 287 286 286 286 285 285 284 283 282 282 281 281 281 280 280 280 280 279 279
309 309 309 309 310 310 311 311 312 312 313 313 312 313 313 313 313 313 314 313 312 311 310 309 309 309 308 307 307 306 305 303 301 299 298 297 296 296 296 295 295 295 295 294 294 294 294 295 298 300 301 301 299 297 294 292 290 289 288 287 287 287 287 287 287 287 287 286 286 285 285 284 283 283 282 281 281 280 280 280 279 279 279 278 278
309 309 309 309 309 310 310 311 311 312 312 312 312 311 311 311 312 312 312 312 311 310 309 309 309 308 307 306 306 305 303 301 298 297 297 296 296 295 295 295 295 294 294 294 293 293 294 297 300 301 301 300 298 296 293 291 289 288 287 287 287 287 287 287 287 287 286 286 285 285 284 284 283 282 281 281 280 280 280 279 279 278 278 278 277
309 309 309 309 309 310 310 310 310 311 311 311 311 311 310 310 311 310 310 310 310 309 309 309 308 307 306 306 305 304 301 299 296 295 296 295 295 295 294 294 294 294 294 293 292 292 296 300 301 300 300 299 297 294 292 290 289 288 287 287 287 286 286 287 286 286 286 286 285 284 284 283 282 282 281 280 280 280 279 279 278 278 278 277 277
309 309 309 309 309 309 309 309 309 310 310 311 310 310 310 310 310 310 310 309 309 309 309 308 308 307 306 306 305 303 300 297 295 295 295 294 294 294 294 294 294 293 293 292 291 294 298 300 300 300 299 297 295 292 290 289 288 287 287 287 286 286 286 286 286 286 286 285 285 284 283 283 282 281 280 280 280 280 279 279 278 278 278 277 277
310 310 310 310 309 309 309 308 308 309 309 309 309 309 309 309 309 309 309 309 309 309 308 308 307 307 306 305 304 303 300 297 296 295 294 294 294 294 294 294 293 293 292 291 291 296 299 300 300 299 298 295 292 290 289 288 288 287 287 286 286 286 286 286 286 286 286 285 284 283 283 282 281 281 280 280 280 279 279 279 278 278 278 278 278
310 310 310 310 309 309 309 309 308 308 308 308 308 308 308 308 308 308 308 308 308 308 308 307 307 306 306 305 304 302 299 297 296 295 294 294 294 294 293 293 292 292 291 290 293 297 300 300 299 299 297 294 292 290 289 288 287 287 286 286 286 286 286 286 286 285 285 284 283 283 282 281 281 280 280 280 279 279 279 279 278 278 278 278 278
309 309 309 309 309 309 309 309 309 308 308 308 308 308 308 308 307 308 308 308 308 307 307 307 306 306 306 305 304 301 299 297 296 296 295 295 294 294 293 292 292 292 290 291 295 299 300 299 298 298 297 295 292 290 288 287 287 287 286 286 286 286 286 285 285 285 285 284 283 282 281 281 280 280 280 279 279 279 279 278 278 278 278 278 278
309 309 309 309 308 308 308 308 308 308 308 308 308 308 308 308 308 308 308 308 307 307 307 307 306 306 306 305 303 301 299 298 297 297 296 295 295 294 293 292 292 292 291 292 296 299 299 298 298 297 297 294 291 289 287 287 287 286 286 286 286 286 286 285 285 284 284 283 282 281 281 281 280 280 279 279 279 278 278 278 278 278 278 278 278
308 308 308 308 308 308 307 307 307 307 307 307 307 307 307 307 307 307 306 306 306 305 305 305 305 305 304 304 303 302 301 300 299 298 296 295 294 294 293 292 292 291 291 293 296 297 298 298 298 297 296 293 290 288 287 287 286 286 286 286 286 286 285 285 284 284 283 283 281 281 280 280 280 280 279 279 279 278 278 278 278 278 278 277 277
307 307 307 307 307 307 307 306 306 306 306 306 306 306 305 305 305 305 305 304 304 303 303 303 302 302 301 301 301 300 299 299 298 296 295 294 293 293 292 292 291 292 293 294 296 297 297 297 297 296 294 290 288 287 287 287 286 286 286 286 286 286 285 284 284 284 283 282 281 280 280 280 279 279 279 279 278 278 278 278 277 277 277 277 277
307 306 306 306 306 306 305 305 305 305 305 305 304 304 304 304 304 304 303 303 303 302 302 301 301 300 299 298 297 296 295 295 294 294 293 293 292 292 291 291 292 293 294 295 295 296 296 296 296 294 291 288 288 287 287 286 286 286 285 285 285 285 284 284 283 283 282 281 281 279 279 279 279 279 278 278 278 278 277 277 277 277 277 277 277
305 305 305 304 304 304 304 304 303 303 303 302 302 302 302 302 302 302 302 302 301 301 301 300 300 299 297 296 295 295 294 293 293 293 292 292 291 292 292 293 293 293 293 293 293 294 294 294 293 292 289 288 288 287 286 286 286 285 285 285 284 284 284 283 283 282 281 281 280 279 278 278 278 278 278 278 278 277 277 277 277 276 276 276 276
303 303 303 303 303 303 302 302 302 302 301 301 300 300 300 300 300 300 300 300 299 299 299 299 298 297 296 295 294 293 293 292 292 292 291 291 291 291 292 292 292 291 290 290 291 292 293 292 291 290 288 288 287 286 286 286 285 284 284 284 284 284 283 283 282 281 281 280 279 278 278 278 278 278 277 277 277 277 277 276 276 276 276 276 276
302 302 302 302 301 301 301 301 300 300 300 299 299 298 297 297 297 297 297 297 297 297 297 296 296 296 295 294 293 293 292 292 292 291 291 290 290 290 290 289 289 288 289 289 290 291 291 291 290 289 288 287 287 286 285 285 284 284 284 283 284 284 283 282 281 280 280 279 278 278 277 278 277 277 277 276 276 276 276 276 276 276 275 275 275
302 302 301 301 301 301 301 300 300 299 299 298 298 297 296 296 295 295 294 294 294 294 294 294 294 293 293 293 292 292 291 291 291 290 290 290 290 289 288 288 288 288 289 289 290 290 290 289 289 288 287 287 286 285 285 284 284 283 283 283 283 283 282 282 281 280 279 278 278 277 277 277 277 277 276 276 276 276 276 276 275 275 275 275 275
299 299 300 300 300 300 300 300 300 300 299 299 298 297 297 296 295 294 294 293 293 293 292 292 292 292 291 291 291 291 291 290 290 290 289 289 289 288 288 288 288 288 289 289 289 290 289 288 288 288 287 286 286 285 284 284 283 283 283 283 283 282 282 282 281 279 278 278 277 277 277 277 277 276 276 275 275 275 275 275 275 275 275 275 275
296 296 296 296 297 297 297 298 298 298 298 298 298 297 297 296 295 295 294 294 293 292 292 292 291 291 291 291 291 290 290 289 289 289 288 288 287 287 287 287 287 287 288 288 288 288 287 287 287 287 287 286 285 284 284 283 283 282 282 282 282 282 282 281 280 278 278 277 277 276 276 276 276 276 275 275 275 275 275 275 275 275 275 274 274
294 294 294 294 294 294 294 294 295 295 295 295 296 296 296 296 295 295 295 295 294 294 293 293 292 292 292 291 291 290 289 289 288 288 288 288 287 287 287 287 287 287 287 287 286 286 286 286 286 286 286 285 284 284 283 283 282 282 282 282 282 282 281 280 278 278 277 277 276 276 276 276 276 275 275 275 275 275 275 274 274 274 274 274 274
293 293 293 293 292 292 292 292 292 293 293 293 293 293 293 294 294 294 294 294 294 294 294 294 293 293 292 292 291 290 290 289 289 288 288 287 287 287 287 287 287 287 287 286 286 286 286 286 286 285 285 284 283 283 282 282 282 282 282 281 281 281 280 279 278 277 277 276 276 276 276 275 275 275 275 275 275 275 274 274 274 274 274 274 274
293 293 293 293 293 292 292 292 292 292 292 291 291 291 292 292 292 292 292 293 293 293 293 293 293 293 293 292 291 290 290 289 289 288 287 287 286 286 285 285 286 286 286 285 285 285 285 285 285 285 285 284 283 282 281 281 281 281 281 281 281 280 279 278 277 277 276 276 276 275 275 275 275 275 275 275 274 274 274 274 274 274 274 274 274
291 291 291 291 291 291 291 291 291 291 291 290 290 290 290 290 290 290 290 290 290 291 291 291 291 292 292 292 292 291 291 290 289 288 288 287 286 285 285 284 285 285 284 284 284 284 284 284 284 284 284 283 282 281 281 280 280 280 280 280 279 279 278 277 277 276 276 276 275 275 275 275 275 275 274 274 274 274 274 274 274 274 274 274 274
289 289 289 289 289 289 289 289 289 289 289 289 289 289 289 289 289 289 289 289 289 289 289 289 289 289 290 290 291 291 291 291 290 290 289 288 287 286 285 285 284 284 283 283 283 282 282 283 283 282 282 282 281 280 280 280 280 280 280 279 279 278 277 277 276 276 276 275 275 275 275 275 274 274 274 274 274 274 274 274 274 274 274 273 273
288 288 288 288 288 288 288 288 288 288 288 288 288 288 288 288 288 288 288 288 288 288 288 288 288 288 288 289 289 290 290 290 290 290 289 288 287 286 285 285 284 283 282 282 281 281 281 281 281 281 281 280 280 280 279 279 279 279 279 279 278 278 277 276 276 276 275 275 275 275 274 274 274 274 274 274 274 274 274 273 273 273 273 273 273
287 287 287 287 287 287 287 287 287 287 287 287 287 287 287 287 287 287 287 287 287 288 288 288 288 288 288 288 288 288 289 289 289 289 289 288 287 286 285 284 282 281 280 280 280 279 279 280 279 279 279 279 279 279 279 279 278 278 278 278 278 277 276 276 275 275 275 274 274 274 274 274 274 274 274 274 274 273 273 273 273 273 273 273 273
286 286 286 286 286 286 286 286 286 286 286 286 286 286 286 286 286 287 287 287 287 287 287 287 287 287 287 287 287 287 288 288 288 288 288 287 287 286 285 283 281 280 279 279 279 278 278 278 278 278 278 278 278 278 278 278 278 278 278 278 277 276 275 275 274 274 274 274 274 274 274 274 274 274 274 274 274 273 273 273 273 273 273 273 273
286 286 286 286 286 286 285 285 285 285 285 285 285 285 285 286 286 286 286 286 286 286 286 286 286 286 286 286 286 286 286 286 286 286 286 286 286 285 284 283 281 280 279 279 278 278 277 277 277 277 277 277 277 277 277 277 277 277 277 276 276 275 274 274 274 274 274 274 274 274 274 274 274 274 274 273 273 273 273 273 273 273 273 272 272
285 285 285 285 285 285 285 285 285 285 285 285 285 285 285 285 285 285 285 285 285 285 285 285 285 285 285 285 285 285 285 284 284 284 285 285 284 284 283 282 281 280 279 279 278 278 277 277 276 276 276 276 276 276 276 276 276 276 276 275 275 274 274 273 273 274 274 274 274 273 273 273 273 273 273 273 273 273 273 273 272 272 272 272 272
285 285 285 285 285 285 284 284 284 284 284 284 284 284 284 284 284 284 284 284 284 284 284 284 284 284 284 284 283 283 283 283 283 283 283 283 283 282 282 281 280 280 279 279 278 278 277 277 276 276 275 275 275 275 275 275 275 275 275 274 274 273 273 273 273 273 273 273 273 273 273 273 273 273 273 273 273 272 272 272 272 272 272 272 272
284 284 284 284 284 284 284 284 284 284 284 284 284 284 284 284 284 284 283 283 283 283 283 282 282 282 282 282 282 282 281 281 281 282 282 282 281 281 281 280 279 279 278 278 278 277 277 276 276 275 275 275 274 274 274 275 275 274 274 274 273 273 273 273 273 273 273 273 273 273 272 272 272 272 272 272 272 272 272 272 272 272 272 271 271
284 284 284 284 284 284 284 284 283 283 283 283 283 283 283 283 283 283 282 282 282 282 281 281 281 281 280 280 280 280 280 280 280 280 280 280 280 279 279 279 278 278 277 277 277 277 276 276 275 275 274 274 274 274 274 274 274 274 273 273 272 272 272 272 272 272 273 273 272 272 272 272 272 272 272 272 272 272 272 271 271 271 271 271 271
283 283 283 283 283 283 283 283 283 283 282 282 282 282 282 282 282 282 281 281 281 280 280 279 279 279 279 279 279 279 279 279 279 279 279 278 278 278 278 278 277 277 277 276 276 276 276 275 275 274 274 273 273 273 273 273 273 273 272 272 272 272 272 272 272 272 272 272 272 272 272 272 271 271 271 271 271 271 271 271 271 271 271 271 271
Wind_Speed
26 30 32 34 36 37 38 39 38 39 39 38 38 38 36 35 33 32 31 30 30 31 31 32 32 33 34 34 33 32 32 30 29 28 28 27 25 23 22 21 20 19 19 19 19 19 18 17 16 15 13 11 9 6 4 4 5 7 10 12 14 15 16 17 19 20 20 20 22 24 26 28 29 30 31 31 31 31 31 32 33 34 34 34 34
22 25 28 30 33 34 35 35 36 37 37 36 36 35 34 32 31 30 30 30 31 31 32 33 33 34 35 34 32 32 31 29 28 28 27 27 25 23 22 21 20 20 21 20 20 19 18 18 17 15 13 11 8 6 5 5 6 8 10 12 14 16 17 18 20 22 22 22 23 24 25 28 29 30 31 32 32 33 33 33 33 34 34 34 34
21 22 24 26 29 30 32 33 34 34 35 35 35 33 32 31 29 30 31 31 31 32 33 33 35 36 35 33 31 31 30 29 28 27 27 26 24 23 22 21 21 21 21 21 20 20 19 19 17 15 13 10 8 6 5 6 7 9 11 12 14 16 17 19 20 22 24 24 25 26 26 27 28 30 31 32 33 34 34 34 34 34 35 34 35
21 22 24 25 26 27 29 31 32 33 34 34 33 32 31 30 30 30 31 32 32 33 33 34 35 36 34 33 32 30 28 28 27 27 27 25 24 23 21 21 21 22 21 21 21 20 20 19 17 15 12 10 8 6 5 6 7 9 11 12 14 16 17 19 21 23 25 26 27 27 27 28 28 30 32 33 33 34 34 35 34 35 35 35 36
19 20 23 25 26 26 27 28 29 31 32 32 31 31 30 30 31 31 32 33 33 34 34 35 36 36 34 33 32 30 28 28 27 28 27 25 24 22 21 21 23 23 23 22 21 20 20 18 16 14 12 10 8 6 6 7 8 10 12 13 14 16 17 19 21 22 24 26 27 28 28 29 30 31 32 33 34 35 35 35 35 36 36 36 36
18 19 20 22 24 26 26 26 27 28 29 30 30 30 30 31 32 33 33 34 33 34 34 35 37 36 33 33 33 31 29 28 28 28 26 25 24 23 23 24 24 24 24 23 22 21 20 18 15 13 11 9 8 7 6 7 9 10 12 13 14 16 17 19 20 22 23 25 27 28 28 29 30 31 32 33 35 36 37 37 36 36 37 38 37
18 18 18 19 21 23 25 25 25 24 25 27 28 29 30 31 32 33 33 33 33 34 34 36 38 34 32 33 34 31 28 28 28 28 25 25 25 25 25 26 26 26 25 24 24 22 20 17 15 13 12 10 8 7 7 8 10 11 12 13 14 15 17 18 20 22 23 24 26 27 28 29 30 31 32 33 34 34 36 39 39 38 39 39 39
17 17 17 18 18 19 21 22 23 23 24 25 27 28 30 30 31 31 31 32 33 32 33 37 37 33 32 33 32 29 28 29 29 28 27 27 27 27 27 27 27 27 26 25 24 22 20 18 15 14 12 10 9 8 8 9 10 12 13 13 14 15 16 18 20 21 22 24 25 27 28 28 29 31 32 32 33 33 34 36 38 40 40 40 39
16 16 16 16 16 17 18 20 22 23 24 25 27 28 29 29 30 30 30 30 31 32 35 37 35 32 32 32 30 29 29 30 29 28 28 29 29 28 28 28 27 27 27 26 25 22 20 18 16 14 13 11 9 8 8 10 11 12 13 13 14 15 16 18 19 20 22 23 25 26 27 27 28 30 31 31 32 33 33 34 37 39 40 41 40
16 16 15 15 15 15 17 19 21 23 25 26 27 29 29 29 29 30 30 31 31 33 35 35 33 33 31 29 29 29 30 30 30 29 29 29 28 28 28 28 28 28 27 26 24 22 20 18 17 15 13 11 10 9 10 11 12 13 13 13 14 15 16 18 19 20 22 23 24 25 26 27 27 28 29 30 30 31 32 34 36 38 39 41 41
17 16 15 15 15 15 16 18 20 22 24 25 27 28 29 29 30 30 31 31 32 33 34 34 33 32 29 28 29 31 32 31 31 30 30 29 28 28 28 29 29 28 27 25 23 22 20 19 17 15 14 12 11 10 11 11 12 13 13 13 14 16 17 18 19 20 21 22 23 24 25 26 26 26 27 29 29 30 31 32 34 36 37 39 41
17 16 16 15 15 15 16 17 20 22 23 24 25 26 27 28 29 30 30 30 32 33 32 33 33 31 29 30 32 33 33 31 31 30 30 29 28 28 29 29 29 28 26 24 23 21 20 19 17 16 14 12 11 11 11 12 13 13 13 14 15 16 17 18 19 20 21 21 22 22 24 25 25 25 26 27 29 29 30 30 31 33 35 36 38
18 17 16 15 15 15 16 17 19 20 21 21 22 23 24 26 27 28 29 30 31 32 32 32 32 31 32 33 33 33 32 31 31 31 30 30 29 30 30 30 29 27 26 25 24 22 21 19 17 16 14 12 11 11 12 12 13 14 14 15 16 16 17 18 19 19 20 21 21 22 23 24 24 24 25 26 28 28 29 30 30 31 33 34 35
19 18 16 16 15 16 16 17 18 19 20 21 21 22 23 25 26 28 29 30 31 33 33 33 33 33 33 33 33 32 32 31 31 32 31 31 31 31 31 30 28 26 26 25 24 23 21 19 17 15 13 12 11 11 12 13 14 15 16 16 16 17 17 18 18 19 20 21 21 21 22 23 23 23 24 24 26 27 28 30 30 31 33 34 35
18 18 18 17 16 17 17 18 19 19 20 21 22 23 24 25 27 29 31 31 32 33 34 33 33 33 32 32 32 31 31 32 32 32 32 32 32 33 32 30 28 27 26 26 24 23 21 19 17 15 13 12 11 12 13 14 15 17 18 17 17 17 17 18 18 19 19 20 21 21 22 22 22 23 23 24 25 26 27 28 29 30 33 35 36
16 17 19 18 18 18 18 19 20 20 21 23 24 26 27 28 29 30 31 32 33 34 34 33 32 32 32 32 32 32 32 33 34 33 33 33 34 34 33 31 30 29 28 27 26 24 22 19 16 14 13 12 12 13 14 16 17 19 19 18 18 18 18 18 18 18 19 19 20 21 21 21 21 22 23 24 24 26 27 27 28 30 33 36 37
17 17 18 19 18 18 19 20 21 22 24 26 27 28 30 31 32 33 34 34 34 33 32 31 32 32 33 33 33 34 34 35 35 34 35 35 35 35 34 32 31 31 30 28 27 24 22 19 16 14 13 13 14 15 15 17 19 20 20 19 19 19 18 18 18 18 19 19 20 21 20 20 21 21 22 23 24 25 26 28 28 29 32 35 37
17 17 17 18 19 19 20 21 22 23 24 26 27 29 30 31 32 33 34 33 33 31 31 31 32 33 34 33 34 34 35 35 35 35 35 35 35 35 34 33 32 32 31 29 27 25 22 19 16 15 15 16 16 16 17 19 20 21 21 20 19 19 19 18 17 18 19 20 20 20 20 20 20 21 22 23 23 24 25 26 28 29 31 33 35
17 16 17 18 19 20 21 22 23 24 25 25 26 27 29 29 30 31 31 32 31 31 31 32 32 33 33 33 33 35 35 35 35 36 36 36 36 35 34 33 33 33 32 30 28 25 22 19 17 17 18 18 18 18 18 20 22 22 23 22 21 20 19 18 18 18 19 20 20 20 19 20 20 20 22 23 23 24 24 25 27 27 29 31 32
16 17 18 18 19 20 21 22 23 24 24 25 26 27 28 29 29 30 31 31 31 31 31 31 32 32 32 33 34 35 35 35 36 36 36 36 36 35 34 34 33 33 31 30 28 25 22 20 19 19 19 19 19 19 20 22 23 24 24 23 22 21 20 19 19 20 20 20 20 20 20 20 20 21 22 23 23 23 23 24 25 25 27 29 30
17 17 17 18 18 19 20 21 22 22 23 24 25 26 27 27 28 29 30 31 31 30 31 31 32 32 33 34 35 36 36 36 37 37 37 36 35 35 35 34 33 32 31 29 28 25 22 20 20 20 20 20 20 20 21 23 25 26 25 24 23 22 20 20 21 22 22 21 20 20 20 20 20 21 22 23 23 23 22 23 23 24 25 27 28
15 16 16 16 16 17 18 19 20 21 21 22 23 25 25 26 26 27 29 30 30 31 31 31 32 33 34 35 36 37 37 38 38 37 37 36 35 35 34 34 34 32 31 30 28 24 22 21 20 20 21 21 21 21 23 25 27 27 26 25 24 23 22 22 22 23 23 22 21 21 20 20 20 21 22 22 22 22 22 22 22 23 24 24 25
13 13 13 14 14 15 16 17 18 19 20 21 22 23 24 25 26 27 28 29 30 30 31 31 32 33 35 36 38 38 39 39 39 38 36 36 35 35 34 35 35 33 32 30 27 24 22 21 20 21 22 23 22 23 26 28 29 28 26 26 25 23 23 23 24 24 24 23 21 20 20 21 21 22 22 21 22 22 22 22 22 23 24 24 23
10 10 11 11 11 13 14 15 17 18 19 20 21 22 23 24 25 27 27 28 29 30 31 32 33 34 36 38 39 40 40 40 39 38 37 36 35 35 36 36 36 35 33 31 28 25 22 21 21 22 23 24 24 25 28 30 30 29 27 26 25 24 25 25 24 25 25 23 21 21 20 21 22 22 22 21 22 23 23 22 22 22 24 24 24
9 9 9 10 10 11 13 14 16 17 18 20 21 22 22 23 25 26 27 28 29 30 32 33 34 36 37 38 39 40 40 40 39 39 38 37 37 37 37 38 38 36 34 31 29 25 22 21 22 24 25 25 26 28 31 32 31 29 28 27 26 26 26 26 25 26 25 23 22 21 21 21 21 21 21 21 22 23 23 22 22 23 24 25 25
7 7 8 8 9 10 11 12 14 15 16 18 20 21 23 23 25 26 27 29 30 31 32 33 34 36 37 37 39 40 40 40 40 40 39 39 39 40 40 39 38 35 33 32 29 24 23 23 25 26 27 28 29 31 33 33 31 30 29 27 27 27 28 27 27 27 26 23 22 21 21 21 21 21 21 21 22 23 23 23 23 24 25 26 27
6 6 6 7 7 8 9 10 11 12 14 15 17 19 21 22 24 25 26 27 29 30 32 33 33 34 35 36 38 39 39 40 41 41 41 41 42 42 41 39 37 36 35 32 27 24 26 26 27 30 31 32 32 34 35 34 33 31 29 28 28 29 29 28 28 27 26 24 22 22 22 21 21 21 21 21 21 22 23 23 24 24 25 26 27
5 6 6 6 7 7 7 8 9 10 12 13 14 15 17 19 21 22 23 25 26 27 29 30 31 32 33 35 37 38 40 41 40 40 40 40 41 42 41 40 38 36 34 30 27 28 30 30 31 33 34 34 35 36 37 36 34 31 30 30 30 30 30 30 29 27 26 24 23 23 22 21 21 21 21 20 21 21 22 22 23 23 24 25 26
4 5 6 6 6 7 7 8 8 9 11 12 13 14 15 17 19 20 21 22 24 25 27 28 28 29 31 33 35 37 38 38 36 37 38 39 39 40 39 38 35 33 31 30 31 34 34 34 36 37 36 36 38 38 38 37 34 32 31 31 31 31 32 31 29 27 26 25 24 23 22 21 21 21 21 20 20 20 21 21 22 22 23 24 25
4 5 5 6 7 7 8 8 9 9 10 11 12 13 14 16 17 19 20 22 23 25 26 26 27 28 30 32 33 35 36 34 33 34 36 36 37 37 35 33 31 31 32 34 36 36 36 37 39 39 38 38 40 40 39 37 35 33 32 32 33 33 32 31 29 28 27 25 25 24 22 22 21 21 21 21 20 19 20 20 21 22 23 24 25
6 6 6 7 7 8 8 9 9 10 11 11 12 13 14 16 17 19 20 21 23 24 25 25 26 27 29 31 32 33 35 34 33 33 33 33 33 33 32 32 32 34 37 39 39 38 39 41 42 40 40 41 41 41 39 37 35 34 33 34 34 33 32 31 29 28 27 26 25 24 23 22 22 21 21 21 20 19 19 19 20 21 21 22 24
7 6 6 7 7 8 9 9 9 10 10 11 12 13 14 15 16 17 19 20 21 23 24 25 26 27 29 30 31 32 33 34 33 33 32 31 30 30 31 33 36 39 41 42 41 41 42 42 42 42 42 43 42 41 40 38 36 35 35 35 34 32 31 31 29 28 27 26 25 24 23 22 22 21 20 20 20 20 19 19 20 21 21 22 23
6 6 6 7 7 7 8 8 8 9 9 10 11 12 13 14 15 16 17 18 19 21 23 24 25 26 28 30 31 32 33 33 33 33 33 33 33 33 35 37 39 42 43 44 45 45 45 44 44 44 44 44 43 41 40 38 36 35 35 34 33 32 31 31 30 29 28 26 25 24 23 22 21 21 20 20 20 20 19 19 20 20 21 22 23
6 6 6 6 6 6 7 7 7 8 8 9 10 10 11 13 14 15 16 17 19 20 21 23 24 26 27 29 30 31 32 33 34 35 34 35 35 36 36 37 39 41 43 46 48 48 46 45 45 46 45 44 43 41 40 38 37 36 35 34 33 33 32 31 30 29 28 26 25 24 22 22 21 20 20 20 20 20 20 20 20 20 21 22 23
7 7 7 7 7 7 7 7 7 7 7 8 8 9 10 12 13 14 16 17 18 20 21 22 23 25 26 28 29 31 32 33 35 36 36 36 36 36 37 40 42 44 46 49 51 50 48 47 47 46 45 44 43 42 41 39 37 36 35 34 33 33 32 31 30 29 28 26 25 23 22 22 21 20 21 20 20 20 21 20 20 21 21 22 22
7 7 7 7 7 8 8 8 8 8 9 9 9 9 10 11 12 14 15 16 18 19 20 21 22 23 25 27 27 28 30 32 33 35 36 36 36 36 39 43 45 47 48 50 50 50 48 47 47 46 45 44 43 42 40 39 38 36 35 34 34 33 33 32 31 29 28 26 25 23 22 21 21 21 21 21 20 21 21 21 20 20 21 22 22
8 8 8 8 8 8 9 9 9 10 10 11 11 11 12 12 13 14 15 17 18 19 20 21 22 23 24 25 25 26 27 29 30 32 33 34 34 36 40 43 44 46 47 47 47 47 46 46 46 46 44 43 42 41 40 39 38 37 36 35 34 33 33 32 31 29 28 26 25 23 22 21 21 21 22 21 21 21 21 21 21 21 21 21 21
10 10 10 10 10 10 10 10 10 11 11 12 12 13 14 15 15 16 17 19 20 21 22 23 23 24 25 25 25 25 26 27 29 31 33 34 35 37 39 41 43 45 45 44 44 45 45 45 45 44 43 42 40 39 39 39 39 38 37 35 34 34 33 32 31 29 28 26 25 24 23 21 21 21 22 22 21 21 21 21 21 21 21 21 21
11 11 11 12 12 12 13 13 13 13 13 13 13 14 14 15 16 17 18 19 21 22 23 24 25 25 25 26 26 27 27 29 31 32 33 34 36 37 38 40 42 43 42 42 42 43 44 44 43 43 43 41 38 38 39 39 39 38 36 36 35 34 33 32 31 29 27 26 25 24 23 22 21 22 22 22 21 21 21 21 20 21 21 21 20
11 12 12 13 13 14 14 15 15 15 15 16 16 16 17 17 18 18 19 20 21 22 22 23 24 24 24 25 26 28 29 30 31 32 33 35 36 37 38 40 42 42 41 41 42 42 42 41 40 40 40 39 37 38 38 38 38 38 37 36 36 35 33 32 30 28 27 26 25 24 22 22 22 22 22 21 21 21 21 20 20 20 20 21 21
12 13 13 14 14 15 15 16 16 17 17 17 18 19 19 20 20 21 21 22 22 23 23 23 23 23 23 24 25 27 29 31 32 33 34 35 36 37 39 40 41 42 41 41 41 41 40 39 38 37 37 36 36 38 39 39 39 38 37 36 35 34 32 31 29 28 26 25 25 24 23 22 22 22 21 21 21 21 20 19 19 19 19 20 20
13 13 14 14 15 16 16 17 17 18 18 19 19 20 21 21 22 23 23 24 24 24 25 25 25 25 25 25 26 26 28 30 31 32 34 35 36 37 39 40 41 41 41 41 40 41 41 40 38 37 36 35 35 36 38 39 39 38 37 36 35 34 32 31 29 27 27 26 25 24 23 23 22 21 21 21 20 20 19 18 18 18 18 18 19
13 13 14 15 16 16 17 18 18 19 20 20 21 21 22 23 23 24 24 25 25 26 27 28 28 28 28 28 28 28 29 30 31 31 32 34 35 36 38 39 39 38 39 39 39 40 40 40 38 37 35 35 35 35 36 38 38 37 36 35 35 34 33 31 29 28 27 27 25 24 23 22 22 21 21 20 19 18 17 17 17 16 17 18 18
14 15 15 16 17 17 18 19 19 20 20 21 21 22 23 23 24 25 25 26 27 27 28 29 29 30 30 30 30 30 31 31 32 32 32 33 33 34 36 36 36 36 36 36 36 37 38 38 37 36 35 35 35 35 36 37 37 37 36 36 35 34 32 30 28 27 27 27 25 24 22 22 21 21 20 19 19 18 17 16 16 16 16 17 17
15 16 16 17 18 18 19 20 20 21 22 22 23 23 24 25 26 26 27 28 28 29 29 30 30 30 31 31 31 32 32 32 33 33 33 33 33 33 34 33 33 33 33 33 33 33 34 34 34 35 35 35 35 35 35 35 36 36 36 35 35 33 31 29 27 27 27 26 24 22 22 21 21 20 20 19 18 17 16 16 16 15 15 16 17
16 17 18 19 19 20 21 21 22 23 23 24 25 25 26 26 27 28 28 29 30 30 31 31 31 31 32 32 32 32 32 32 33 33 33 33 33 33 33 32 32 32 32 32 31 31 31 31 32 33 33 33 33 33 34 34 34 35 35 34 34 32 30 28 27 26 26 25 23 22 22 22 21 20 20 19 18 17 16 16 15 15 15 16 16
19 20 21 21 22 23 24 24 25 25 26 26 27 27 28 28 29 29 30 30 30 31 31 32 32 32 32 32 32 32 32 32 33 33 33 33 32 32 32 32 31 31 31 31 31 31 30 30 30 31 31 31 32 32 33 33 34 34 34 33 32 30 28 27 26 26 25 25 24 23 23 22 21 20 19 19 18 17 16 16 15 15 15 16 16
22 23 23 24 25 26 26 27 27 28 29 29 29 30 30 30 30 30 30 31 31 31 32 32 32 32 32 32 32 32 32 32 32 32 32 32 31 32 32 31 31 31 31 30 30 30 30 29 29 29 29 29 29 30 31 31 32 32 32 31 30 28 27 27 27 26 25 25 24 23 22 21 20 20 19 18 17 17 16 16 16 15 16 16 17
25 25 26 27 27 28 29 29 30 30 31 31 31 32 32 32 32 32 31 32 32 31 31 31 31 31 31 31 31 30 31 31 31 31 30 31 31 31 31 31 30 30 30 30 29 29 28 27 27 26 26 26 26 27 28 29 30 30 30 29 28 27 27 27 26 25 25 24 23 22 22 21 20 19 19 18 17 17 16 16 16 16 16 17 17
27 28 28 29 30 30 31 31 31 31 32 32 32 33 33 33 33 32 32 32 32 32 31 31 30 29 29 30 30 30 29 29 29 29 29 29 29 30 30 30 30 30 29 28 28 27 27 26 26 25 24 24 25 26 26 27 28 28 27 27 27 27 27 26 25 24 23 23 22 22 22 21 20 19 19 18 18 17 17 17 16 16 17 17 17
29 29 30 31 31 31 32 32 32 32 32 32 32 33 33 33 33 33 32 32 32 32 31 31 30 29 29 29 29 29 29 29 29 28 28 28 28 28 29 29 30 29 28 28 27 26 25 25 24 24 24 24 24 25 25 25 25 25 26 26 27 27 26 25 24 23 23 23 23 22 22 21 20 19 19 18 18 18 18 17 17 17 17 18 18
Wind_Direction
255 249 247 246 246 247 247 246 245 246 247 247 247 249 249 247 245 242 240 237 233 230 228 227 228 231 235 238 238 239 240 237 232 229 227 224 220 216 216 217 217 216 212 207 204 201 198 196 195 195 194 194 199 209 230 271 303 317 321 322 323 322 322 321 320 322 325 326 326 326 326 325 325 325 324 324 323 323 324 325 326 328 330 331 333
260 255 251 248 248 248 247 247 246 245 246 246 246 247 246 244 242 239 237 234 230 228 226 227 228 230 235 238 238 240 242 235 226 224 222 219 216 214 213 214 213 211 208 205 203 200 198 198 196 195 195 196 202 217 242 278 302 314 317 318 319 319 318 319 319 322 325 327 327 326 326 326 325 324 324 323 323 323 323 325 326 326 327 329 330
263 259 255 252 250 249 247 246 245 243 243 243 244 244 243 241 237 234 233 230 227 226 225 227 228 231 235 237 238 241 238 227 223 223 219 215 215 214 213 212 211 209 206 204 202 201 201 201 199 195 195 199 207 224 252 284 301 309 313 315 315 315 315 317 320 322 325 327 327 327 327 326 325 323 323 322 323 323 324 325 326 326 327 329 331
267 261 257 254 252 250 248 246 244 243 242 241 241 240 239 237 233 231 229 227 225 224 224 226 228 232 234 235 239 241 230 222 222 220 214 211 213 213 212 211 208 206 205 203 202 203 205 203 199 196 198 203 214 232 259 285 298 305 310 309 309 311 314 317 321 322 324 326 327 328 327 326 325 324 323 323 323 323 324 324 326 327 328 331 333
274 267 261 257 254 251 249 247 245 244 242 240 238 236 234 232 230 229 227 225 224 222 223 226 227 231 233 233 238 239 227 221 221 216 211 209 210 209 208 208 206 204 202 202 203 205 205 202 199 200 204 209 220 239 262 282 296 302 304 305 307 311 314 317 320 322 324 325 325 326 327 327 326 325 325 325 324 324 324 325 327 328 330 333 337
279 274 266 261 257 253 250 248 246 245 242 239 236 232 230 228 227 227 226 224 222 221 224 226 225 229 231 231 236 236 227 222 220 215 211 209 206 205 204 206 206 204 202 202 204 205 202 199 200 204 209 216 228 246 266 283 294 298 299 302 306 310 314 317 319 321 323 323 324 325 327 328 327 326 327 326 326 326 327 326 328 331 333 337 341
285 280 274 268 262 256 252 248 245 242 239 236 232 229 227 225 226 227 225 223 222 223 225 224 223 229 232 232 234 232 225 222 218 214 211 208 205 204 205 206 205 204 204 204 205 203 200 200 202 206 213 223 235 251 270 283 290 293 296 300 304 309 314 316 318 320 321 322 323 325 326 327 327 327 327 327 327 328 329 327 328 333 336 339 343
291 286 279 273 268 261 254 249 244 240 236 233 229 227 226 225 226 226 225 224 223 225 227 223 222 229 235 234 233 228 222 219 215 211 209 207 206 206 207 207 205 205 205 206 205 201 199 201 204 209 217 227 239 254 270 281 286 290 293 297 303 309 313 315 317 318 320 322 324 324 325 327 327 326 327 327 327 328 329 329 329 333 336 338 342
293 287 281 276 270 262 254 247 242 238 233 230 228 226 226 225 225 224 225 225 225 227 226 222 224 233 237 232 228 224 220 215 211 210 208 206 207 207 207 207 206 206 208 207 204 200 200 204 207 213 221 229 240 254 267 276 281 286 290 296 303 309 311 313 314 316 320 322 323 323 324 326 326 326 326 327 327 328 330 331 332 334 335 335 339
290 286 282 277 268 259 251 245 240 236 234 231 229 227 225 224 224 224 225 225 226 226 222 218 226 237 234 226 222 220 216 211 209 209 209 208 209 208 207 207 207 209 211 209 204 201 203 207 210 216 223 229 240 253 264 272 279 284 290 297 303 306 308 310 313 316 319 321 322 323 323 324 326 326 325 326 327 329 331 333 334 334 335 335 337
289 288 285 279 269 259 250 244 238 236 234 232 229 227 225 223 222 222 224 223 223 222 217 218 228 233 228 223 222 217 212 209 209 208 207 208 209 208 209 210 209 210 210 208 205 205 207 210 214 218 223 230 241 253 262 271 278 284 291 297 300 302 305 308 312 316 318 319 321 322 322 323 325 325 324 325 327 330 333 334 334 334 334 334 335
282 286 285 282 275 265 254 245 239 235 233 231 229 226 223 222 220 221 223 222 218 216 218 224 228 228 225 224 220 214 212 210 208 206 206 206 206 208 212 213 212 211 208 205 206 209 211 214 217 220 225 233 244 255 265 273 280 285 289 292 294 297 302 306 310 313 315 317 320 321 320 321 323 324 324 325 327 329 331 332 333 331 330 331 331
275 278 281 281 277 269 259 248 241 236 232 230 228 224 221 221 221 222 222 220 218 220 224 228 227 227 226 223 216 213 213 211 207 206 206 206 205 207 212 214 214 212 208 206 208 211 214 218 220 223 229 237 248 259 269 277 282 284 284 286 290 294 299 304 308 311 314 316 318 320 319 319 321 323 324 325 326 327 328 329 330 328 326 327 329
276 274 275 276 273 269 262 252 244 239 232 229 227 224 223 223 224 224 224 223 223 224 227 229 230 230 226 219 214 213 212 210 209 209 207 206 206 208 211 213 212 211 210 210 212 214 216 220 222 227 233 242 253 264 273 280 283 281 279 281 286 291 296 301 305 309 312 314 316 317 317 317 319 321 323 323 324 324 325 325 326 324 323 324 326
281 276 272 271 269 267 262 255 248 241 234 230 228 227 228 227 227 227 226 226 227 228 231 233 233 229 221 217 215 213 212 210 210 210 208 207 207 209 211 211 210 209 210 212 215 216 218 221 224 229 237 246 259 268 275 281 282 277 276 279 283 288 293 298 302 305 309 311 312 313 314 316 318 319 320 321 321 321 320 320 321 321 321 323 326
282 277 271 266 265 263 261 256 250 242 236 232 230 230 229 229 230 229 229 230 232 235 235 233 229 223 217 216 215 213 212 211 211 211 209 208 209 211 212 211 209 210 211 214 217 217 219 223 226 232 240 249 260 267 274 280 279 275 276 278 282 286 290 295 298 301 304 306 307 308 311 313 315 316 317 318 317 317 317 317 318 319 320 323 325
279 278 274 267 264 261 259 256 251 244 238 234 232 232 231 231 231 232 233 235 235 234 232 226 222 219 217 216 215 213 212 211 211 211 210 210 211 213 214 212 211 212 213 216 219 219 221 224 227 234 243 249 258 266 272 277 277 275 276 277 279 283 286 290 293 296 299 301 303 306 308 310 312 313 314 314 314 314 314 316 318 319 320 322 324
275 277 278 273 267 261 258 256 252 247 242 238 236 236 235 234 234 233 234 235 234 232 229 224 220 219 218 218 216 214 213 212 212 211 211 212 214 216 216 215 213 214 215 218 220 221 222 225 228 236 244 251 260 267 271 275 276 275 275 275 276 279 283 286 289 291 295 297 299 302 304 306 308 310 311 310 310 311 312 313 316 318 318 320 322
271 272 273 269 263 260 256 254 252 249 245 243 240 239 238 237 236 235 234 233 232 231 228 224 222 221 220 219 217 216 215 214 213 213 213 215 217 218 218 217 216 217 218 219 221 222 224 226 230 238 246 256 265 267 269 273 275 274 274 273 274 277 280 282 284 288 290 292 295 298 300 302 305 307 307 307 307 308 309 310 313 315 317 319 321
268 265 265 261 258 256 254 253 252 250 248 245 242 240 239 238 237 235 233 232 231 229 226 225 224 223 221 219 217 217 216 215 216 216 216 217 219 219 219 220 220 220 221 222 223 225 226 227 233 242 253 264 267 266 268 273 274 273 272 272 273 275 278 279 281 285 286 287 290 293 295 298 301 303 304 304 304 306 307 309 312 315 316 318 321
264 263 263 261 257 255 254 254 253 251 248 245 241 240 239 237 237 236 234 232 230 228 226 225 225 224 222 220 218 216 216 216 217 218 218 219 220 221 222 222 223 223 224 225 226 226 226 231 241 252 263 269 267 265 269 272 272 271 270 270 271 274 275 277 280 283 285 285 288 290 292 296 300 301 301 301 302 305 307 310 313 316 317 319 321
263 263 263 261 260 257 257 258 257 253 249 245 241 239 238 236 236 235 233 232 231 229 229 227 226 225 222 220 219 217 217 217 218 220 222 222 222 223 224 225 225 225 226 227 227 225 228 239 252 263 269 270 266 265 268 269 269 268 268 268 270 273 274 277 280 283 284 285 286 289 292 296 298 298 299 300 302 305 308 312 315 318 319 319 321
267 263 261 260 258 256 257 260 260 258 254 249 246 243 239 237 236 235 234 234 233 233 233 231 229 227 224 222 221 219 218 218 219 221 223 223 224 225 225 226 227 227 227 227 226 227 235 250 263 270 272 269 265 264 266 266 266 267 267 267 270 272 275 277 280 282 282 283 284 288 292 295 296 297 298 300 303 306 310 315 318 318 319 320 322
287 278 268 262 256 252 252 254 256 257 255 254 252 250 246 242 240 239 239 239 238 238 237 234 232 229 227 225 223 221 220 219 220 221 223 224 225 227 227 228 228 227 228 226 224 229 243 260 270 273 272 267 263 263 263 264 265 265 265 267 269 272 274 277 279 280 280 281 283 286 290 292 293 296 298 301 304 308 312 315 318 318 318 319 323
310 300 286 276 267 261 258 256 256 256 255 253 252 251 250 248 246 245 244 242 241 240 238 236 234 232 230 229 227 225 223 222 222 223 223 224 225 227 229 229 229 228 227 225 224 234 253 267 271 272 269 263 261 261 261 262 263 263 264 266 268 270 273 275 277 278 278 279 281 284 286 288 291 294 298 302 305 308 311 314 317 318 318 320 324
317 308 294 285 275 268 266 265 264 263 261 257 255 253 251 250 249 248 246 244 243 242 240 239 237 236 235 233 231 229 227 226 225 225 225 226 226 227 228 228 228 228 227 225 228 243 261 268 270 271 266 260 259 260 260 260 260 260 262 265 266 269 273 274 274 276 276 276 278 281 283 286 289 293 297 301 304 307 310 314 316 319 320 322 326
310 303 293 286 278 271 266 263 262 262 262 261 260 258 256 254 252 251 249 248 248 246 245 244 242 240 239 237 234 232 231 230 229 229 229 230 229 229 229 228 228 228 227 226 235 254 267 269 270 270 265 260 258 258 257 257 257 259 261 263 265 269 272 271 271 272 273 274 275 277 280 283 288 292 295 299 302 305 309 313 315 319 322 324 327
295 292 287 284 279 275 270 263 259 258 256 256 257 257 257 257 257 256 256 256 255 254 253 251 250 249 246 242 238 235 234 234 235 236 237 237 237 235 233 231 231 230 228 231 245 261 266 267 269 269 265 259 256 255 254 254 256 258 260 261 264 268 269 268 268 269 271 272 273 274 278 282 286 290 293 296 300 304 308 311 315 319 323 325 329
274 279 278 276 273 270 269 267 263 261 258 256 255 253 253 254 256 256 257 256 256 256 256 256 256 257 254 249 245 242 241 243 245 245 245 244 243 242 240 239 238 234 233 242 254 261 263 266 269 269 264 257 254 253 253 254 255 257 259 260 263 266 267 265 266 268 269 270 271 273 277 281 284 288 290 293 298 303 306 311 315 319 323 326 329
240 251 260 263 262 260 259 258 259 259 259 257 257 255 254 253 253 252 252 251 251 252 252 253 254 254 254 253 251 249 250 253 254 252 250 249 248 246 244 242 240 239 245 253 257 258 261 265 268 266 260 255 253 253 253 253 254 257 259 259 262 264 264 263 265 267 268 269 270 273 276 279 282 285 288 292 297 301 305 310 315 318 322 326 329
229 231 239 247 252 254 255 254 254 255 256 257 257 256 255 253 252 252 252 252 251 251 251 251 250 249 250 250 250 250 251 253 253 253 253 253 251 248 245 242 243 249 254 254 252 255 261 265 266 263 257 253 253 253 254 254 255 256 257 258 260 262 262 262 264 265 265 266 269 270 273 277 280 283 287 291 295 299 304 309 313 317 321 325 328
231 231 235 241 245 251 254 256 257 258 260 262 262 262 261 260 258 257 257 257 257 255 254 252 250 249 248 248 248 249 250 251 253 254 253 252 251 248 246 246 249 252 252 248 248 255 261 263 262 259 255 253 255 255 254 254 254 254 255 257 259 261 262 263 263 262 262 264 265 267 270 274 278 281 285 290 294 298 302 307 311 315 319 321 325
239 237 240 244 249 254 258 263 266 266 268 271 272 274 274 273 271 269 265 263 262 260 259 258 255 253 252 251 251 251 252 253 254 254 253 251 249 247 247 248 250 250 249 248 251 256 260 261 260 258 256 256 256 256 255 254 254 254 254 256 258 261 262 262 260 260 261 262 263 265 268 272 276 279 283 287 291 295 300 305 309 312 315 317 322
280 269 264 260 259 261 265 269 273 276 277 277 278 281 282 281 281 279 275 272 269 267 265 263 262 260 259 257 257 256 256 256 256 255 253 252 250 249 250 250 250 249 249 251 254 257 259 260 260 258 257 258 257 256 255 254 253 252 253 255 258 260 261 259 259 260 260 260 261 263 266 270 274 277 280 284 289 293 298 302 306 309 312 314 318
321 314 308 299 292 289 285 282 284 286 285 285 285 286 287 287 287 286 285 283 280 277 273 270 268 266 265 263 262 262 261 260 260 259 257 256 254 253 252 250 250 250 251 253 256 259 259 259 259 259 259 259 258 257 256 255 253 252 253 255 258 260 259 259 260 260 259 260 261 261 264 268 271 275 279 283 287 291 295 299 302 306 308 310 314
3 357 349 341 334 327 319 311 307 302 296 294 292 288 287 287 286 286 286 285 284 283 281 278 275 271 269 268 267 267 266 265 264 263 262 260 258 255 253 253 254 254 255 258 260 263 263 262 262 263 262 260 259 257 255 254 253 252 253 255 257 258 259 260 260 258 257 258 259 260 263 267 270 273 278 282 285 289 292 296 299 302 304 306 310
16 11 7 3 358 351 343 336 328 322 315 310 304 299 294 290 287 285 284 283 283 283 282 281 279 277 275 274 273 273 272 271 269 268 265 263 260 257 256 258 259 259 260 262 264 265 265 264 264 266 266 264 262 258 255 254 253 252 252 254 256 258 259 259 257 255 255 256 257 259 262 265 269 272 276 280 283 287 290 293 297 300 301 302 305
11 7 3 1 357 353 349 344 337 333 328 322 317 312 308 302 298 295 291 288 286 285 283 283 282 280 279 279 278 276 275 273 271 268 267 265 263 261 262 263 263 264 265 266 265 266 267 268 268 269 269 268 264 260 256 254 253 252 253 254 256 257 256 254 252 252 254 255 256 258 261 263 267 270 274 277 280 284 287 290 294 296 298 299 301
358 357 354 352 351 349 346 343 341 338 334 331 328 323 318 314 309 305 302 299 296 293 291 289 287 286 285 284 282 279 276 274 272 271 271 269 268 268 267 267 267 269 269 269 268 268 269 271 272 272 273 271 266 260 256 254 253 253 253 254 255 255 253 252 251 251 252 253 255 257 260 263 266 268 271 274 278 281 284 287 290 293 294 296 298
345 344 341 339 337 335 334 333 332 331 330 329 328 326 323 321 317 313 311 308 305 302 299 296 295 294 291 288 285 282 279 276 274 273 272 272 271 271 270 269 270 272 272 270 270 271 272 273 274 275 276 274 267 260 256 254 253 253 253 254 254 253 252 251 250 250 251 252 255 257 260 263 265 266 269 272 275 278 281 284 287 290 292 295 298
346 342 339 338 334 330 328 326 323 323 323 322 321 321 320 318 317 314 312 310 308 306 304 301 300 298 295 291 288 284 281 279 277 275 274 273 272 271 270 270 271 272 272 271 272 272 273 274 275 275 275 274 268 261 256 253 251 252 253 253 253 252 251 250 250 251 252 253 254 256 258 260 262 264 266 269 271 275 279 282 285 288 291 294 298
339 335 333 331 327 324 323 321 319 318 317 316 315 314 313 311 310 309 308 307 307 306 304 303 302 300 297 294 290 286 282 281 279 277 276 275 273 272 271 272 272 273 273 274 274 274 275 275 275 274 274 273 269 263 258 254 253 253 254 254 254 253 253 252 251 251 251 252 253 254 256 257 260 262 263 266 268 272 276 280 283 287 291 294 297
327 326 324 320 318 317 315 313 312 311 310 309 309 307 306 305 305 304 303 303 302 301 301 301 301 299 297 295 292 288 285 283 281 279 278 276 274 273 273 274 274 275 275 275 275 275 275 275 275 274 274 272 268 264 259 256 254 254 255 255 255 254 253 252 250 250 251 251 252 253 254 256 257 259 260 262 265 269 273 278 282 286 290 294 297
321 321 319 318 317 316 313 312 311 309 308 307 306 304 304 303 302 301 301 300 299 299 298 298 297 296 295 294 291 290 288 286 285 283 280 277 274 272 272 273 274 274 274 275 275 274 274 275 275 274 272 270 267 264 260 256 254 254 254 255 254 253 252 251 250 250 250 251 251 252 253 254 254 255 257 259 263 267 271 276 280 284 288 292 296
318 317 316 315 314 312 311 310 309 307 307 306 305 304 303 302 301 300 299 298 297 297 296 295 294 293 292 291 290 290 289 288 287 286 283 281 277 274 272 271 271 271 271 271 271 271 271 271 272 270 269 267 264 263 260 257 254 254 255 254 253 252 251 250 249 249 249 251 252 252 252 251 251 251 253 256 260 266 270 274 279 283 287 291 295
314 313 312 310 309 308 307 306 305 305 304 303 302 301 300 299 299 298 297 296 296 296 295 294 293 292 291 290 290 289 289 289 289 288 287 285 283 280 277 273 270 269 268 268 268 267 266 266 266 266 265 264 262 260 258 256 254 254 254 253 251 251 250 249 249 249 250 252 252 250 248 247 245 246 248 252 257 263 268 272 278 282 286 290 294
309 308 307 306 305 305 304 303 303 302 301 300 300 299 298 297 297 296 296 296 296 295 295 294 293 292 291 290 289 289 289 289 289 289 288 288 286 284 283 279 275 272 269 268 266 265 264 262 263 263 263 262 260 257 256 255 255 255 254 252 251 251 251 250 250 250 250 249 248 246 244 242 241 242 246 250 255 261 266 270 276 281 285 289 294
307 306 305 304 304 303 302 302 301 300 300 299 298 297 297 296 296 296 295 295 295 295 295 294 293 293 292 290 290 290 291 290 290 290 289 289 288 286 284 283 280 276 273 269 267 266 264 263 263 262 262 261 259 257 256 257 256 256 255 253 252 251 251 250 249 248 248 248 247 245 243 241 240 241 245 249 254 260 265 269 274 280 284 289 293
305 304 303 303 302 301 300 300 299 298 298 297 296 296 296 296 296 296 296 297 296 297 297 296 295 294 293 292 292 292 291 291 291 290 288 288 287 286 285 284 281 278 275 272 269 266 265 264 263 262 261 260 259 258 258 258 257 255 253 252 251 251 250 250 249 249 249 248 247 245 242 240 240 241 245 249 253 259 264 269 273 278 282 287 290
303 302 301 300 299 299 298 297 296 296 296 295 295 295 295 296 296 297 298 298 298 299 299 299 297 296 295 294 293 293 292 291 290 289 289 288 288 286 286 284 282 280 277 274 271 268 265 263 262 261 261 260 259 259 258 257 256 253 251 251 251 252 252 252 252 251 250 248 246 243 241 240 240 242 245 249 254 258 263 268 272 276 279 284 288
300 299 298 298 297 296 296 295 295 294 294 294 294 295 295 296 297 298 298 298 299 300 300 300 299 298 297 296 295 294 293 292 292 292 292 291 289 288 286 285 283 281 279 276 274 270 267 264 263 262 261 261 260 260 259 257 255 252 251 251 252 253 253 253 253 251 249 247 245 243 241 241 242 244 247 251 255 260 264 267 271 274 277 281 285